Port Heiden, AK

3:22 PM AKST on February 25, 2017 (GMT -0900)
Port Heiden

Weather History for PAPH - January, 2014

Change the Weather History Date:

Saturday, January 11, 2014

  Actual Average Record
Temperature  
Mean Temperature 32 °F -  
Max Temperature 37 °F 28 °F 44 °F (2015)
Min Temperature 26 °F 18 °F -20 °F (2008)
Degree Days  
Heating Degree Days 34    
Moisture  
Dew Point 25 °F    
Average Humidity 71    
Maximum Humidity 81    
Minimum Humidity 52    
Precipitation  
Precipitation 0.01 in - - ()
Sea Level Pressure  
Sea Level Pressure 28.99 in    
Wind  
Wind Speed 9 mph (SE)    
Max Wind Speed 16 mph    
Max Gust Speed 23 mph    
Visibility 10 miles    
Events      
Averages and records for this station are not official NWS values.
T = Trace of Precipitation, MM = Missing Value Source: NWS Daily Summary

Daily Weather History Graph

Daily Weather History Graph

Search for Another Location

Airport or City:

Trip Planner

Search our weather history database for the weather conditions in past years. The results will help you decide how hot, cold, wet, or windy it might be!

Date:

Astronomy

Jan. 11, 2014 Rise Set
Actual Time 10:05 AM AKST 5:20 PM AKST
Civil Twilight 9:18 AM AKST 6:07 PM AKST
Nautical Twilight 8:29 AM AKST 6:56 PM AKST
Astronomical Twilight 7:43 AM AKST 7:42 PM AKST
Moon 2:21 PM AKST (1/11) 6:10 AM AKST (1/11)
Length of Visible Light 8h 48m
Length of Day
7h 14m
Waxing Gibbous, 84% of the Moon is Illuminated
Jan 11
Waxing Gibbous
Jan 15
Full
Jan 23
Last Quarter
Jan 30
New
Feb 6
First Quarter

Hourly Weather History & Observations

Time (AKST) Temp. Windchill Dew Point Humidity Pressure Visibility Wind Dir Wind Speed Gust Speed Precip Events Conditions
12:16 AM 28.4 °F 20.4 °F 19.4 °F 69% 29.23 in 10.0 mi East 8.1 mph - N/A   Partly Cloudy
12:36 AM 28.4 °F 20.4 °F 19.4 °F 69% 29.23 in 10.0 mi East 8.1 mph - N/A   Clear
12:56 AM 30.2 °F 21.9 °F 21.2 °F 69% 29.20 in 10.0 mi East 9.2 mph - N/A   Partly Cloudy
1:16 AM 32.0 °F 24.2 °F 23.0 °F 69% 29.19 in 10.0 mi East 9.2 mph - N/A   Scattered Clouds
1:36 AM 32.0 °F 25.6 °F 23.0 °F 69% 29.18 in 10.0 mi East 6.9 mph - N/A   Mostly Cloudy
1:56 AM 33.8 °F 25.8 °F 24.8 °F 70% 29.17 in 10.0 mi East 10.4 mph - N/A   Partly Cloudy
2:16 AM 33.8 °F 26.4 °F 24.8 °F 70% 29.16 in 10.0 mi East 9.2 mph - N/A   Mostly Cloudy
2:36 AM 35.6 °F 28.0 °F 24.8 °F 65% 29.15 in 10.0 mi ESE 10.4 mph - N/A   Overcast
2:56 AM 35.6 °F 25.9 °F 24.8 °F 65% 29.13 in 10.0 mi ESE 16.1 mph 19.6 mph N/A   Overcast
3:16 AM 35.6 °F 27.1 °F 24.8 °F 65% 29.11 in 10.0 mi ESE 12.7 mph - N/A   Overcast
3:36 AM 35.6 °F 26.2 °F 24.8 °F 65% 29.11 in 10.0 mi ESE 15.0 mph - N/A   Overcast
3:56 AM 35.6 °F 27.1 °F 24.8 °F 65% 29.10 in 10.0 mi East 12.7 mph - N/A   Overcast
4:16 AM 35.6 °F 27.5 °F 24.8 °F 65% 29.08 in 10.0 mi East 11.5 mph - N/A   Overcast
4:36 AM 35.6 °F 26.6 °F 24.8 °F 65% 29.07 in 10.0 mi ESE 13.8 mph 18.4 mph N/A   Overcast
4:56 AM 35.6 °F 28.0 °F 24.8 °F 65% 29.05 in 10.0 mi ESE 10.4 mph - N/A   Overcast
5:16 AM 37.4 °F 29.8 °F 24.8 °F 60% 29.04 in 10.0 mi ESE 11.5 mph 19.6 mph N/A   Overcast
5:36 AM 37.4 °F 32.1 °F 24.8 °F 60% 29.03 in 10.0 mi ESE 6.9 mph - N/A   Overcast
5:56 AM 37.4 °F 31.4 °F 24.8 °F 60% 29.02 in 10.0 mi ESE 8.1 mph - N/A   Overcast
6:16 AM 37.4 °F 31.4 °F 24.8 °F 60% 29.01 in 10.0 mi East 8.1 mph - N/A   Overcast
6:36 AM 35.6 °F 29.9 °F 24.8 °F 65% 28.99 in 10.0 mi East 6.9 mph - N/A   Overcast
6:56 AM 35.6 °F 28.6 °F 24.8 °F 65% 28.98 in 10.0 mi East 9.2 mph - N/A   Overcast
7:16 AM 35.6 °F 29.2 °F 24.8 °F 65% 28.97 in 10.0 mi ENE 8.1 mph - N/A   Overcast
7:36 AM 37.4 °F 34.9 °F 24.8 °F 60% 28.97 in 10.0 mi ESE 3.5 mph - N/A   Overcast
7:56 AM 35.6 °F 29.2 °F 24.8 °F 65% 28.96 in 10.0 mi ENE 8.1 mph - N/A   Overcast
8:16 AM 37.4 °F 33.8 °F 24.8 °F 60% 28.95 in 10.0 mi NE 4.6 mph - N/A   Overcast
8:36 AM 35.6 °F 29.9 °F 26.6 °F 70% 28.95 in 10.0 mi East 6.9 mph - N/A   Overcast
8:56 AM 35.6 °F 29.2 °F 26.6 °F 70% 28.94 in 10.0 mi NNE 8.1 mph - N/A   Overcast
9:16 AM 35.6 °F 29.9 °F 26.6 °F 70% 28.93 in 10.0 mi NNE 6.9 mph - N/A   Overcast
9:36 AM 35.6 °F 30.7 °F 26.6 °F 70% 28.94 in 10.0 mi NE 5.8 mph - N/A   Overcast
9:56 AM 35.6 °F - 26.6 °F 70% 28.93 in 10.0 mi Calm Calm - N/A   Overcast
10:16 AM 33.8 °F 26.4 °F 26.6 °F 75% 28.93 in 10.0 mi NNE 9.2 mph - N/A   Overcast
10:36 AM 33.8 °F 30.8 °F 26.6 °F 75% 28.93 in 10.0 mi NNE 3.5 mph - N/A   Overcast
10:56 AM 33.8 °F 30.8 °F 26.6 °F 75% 28.94 in 3.0 mi NNW 3.5 mph - N/A   Overcast
11:16 AM 33.8 °F - 26.6 °F 75% 28.95 in 6.0 mi Calm Calm - N/A   Overcast
11:36 AM 33.8 °F - 26.6 °F 75% 28.95 in 9.0 mi Calm Calm - N/A   Overcast
11:56 AM 33.8 °F - 26.6 °F 75% 28.95 in 6.0 mi Calm Calm - N/A   Overcast
12:16 PM 33.8 °F 29.6 °F 28.4 °F 81% 28.95 in 4.0 mi SE 4.6 mph - 0.01 in   Overcast
12:36 PM 35.6 °F 28.0 °F 26.6 °F 70% 28.93 in 10.0 mi SE 10.4 mph - 0.01 in   Overcast
12:56 PM 33.8 °F 27.0 °F 28.4 °F 81% 28.92 in 10.0 mi East 8.1 mph - 0.01 in   Overcast
1:16 PM 33.8 °F 30.8 °F 28.4 °F 81% 28.92 in 10.0 mi NNE 3.5 mph - N/A   Overcast
1:36 PM 35.6 °F 31.7 °F 28.4 °F 75% 28.91 in 10.0 mi SW 4.6 mph - N/A   Overcast
1:56 PM 35.6 °F 29.2 °F 28.4 °F 75% 28.91 in 10.0 mi South 8.1 mph - N/A   Overcast
2:16 PM 35.6 °F 29.2 °F 28.4 °F 75% 28.91 in 10.0 mi SSW 8.1 mph - N/A   Mostly Cloudy
2:36 PM 35.6 °F 28.6 °F 28.4 °F 75% 28.92 in 10.0 mi SSW 9.2 mph - N/A   Overcast
2:56 PM 35.6 °F 26.6 °F 28.4 °F 75% 28.92 in 10.0 mi SSW 13.8 mph - N/A   Overcast
3:16 PM 33.8 °F 24.8 °F 28.4 °F 81% 28.91 in 9.0 mi SSW 12.7 mph - N/A   Overcast
3:36 PM 33.8 °F 25.3 °F 26.6 °F 75% 28.91 in 2.5 mi SSW 11.5 mph - N/A   Overcast
3:56 PM 33.8 °F 24.8 °F 26.6 °F 75% 28.92 in 3.0 mi SSW 12.7 mph - N/A   Overcast
4:16 PM 33.8 °F 24.8 °F 26.6 °F 75% 28.92 in 10.0 mi SSW 12.7 mph - N/A   Overcast
4:36 PM 33.8 °F 24.3 °F 28.4 °F 81% 28.92 in 10.0 mi SW 13.8 mph - N/A   Overcast
4:56 PM 33.8 °F 23.5 °F 28.4 °F 81% 28.93 in 9.0 mi SW 16.1 mph - N/A   Overcast
5:16 PM 33.8 °F 23.5 °F 28.4 °F 81% 28.93 in 10.0 mi SSW 16.1 mph - N/A   Overcast
5:36 PM 33.8 °F 23.5 °F 28.4 °F 81% 28.93 in 10.0 mi SSW 16.1 mph 23.0 mph N/A   Overcast
5:56 PM 33.8 °F 23.5 °F 26.6 °F 75% 28.93 in 10.0 mi SW 16.1 mph - N/A   Overcast
6:16 PM 33.8 °F 23.5 °F 28.4 °F 81% 28.94 in 10.0 mi SW 16.1 mph - N/A   Overcast
6:36 PM 33.8 °F 24.3 °F 26.6 °F 75% 28.93 in 10.0 mi SW 13.8 mph - N/A   Overcast
6:56 PM 33.8 °F 24.8 °F 26.6 °F 75% 28.93 in 10.0 mi SW 12.7 mph - N/A   Mostly Cloudy
7:16 PM 33.8 °F 24.3 °F 26.6 °F 75% 28.94 in 10.0 mi SSW 13.8 mph - N/A   Mostly Cloudy
7:36 PM 33.8 °F 24.8 °F 26.6 °F 75% 28.94 in 10.0 mi SSW 12.7 mph - N/A   Scattered Clouds
7:56 PM 32.0 °F 23.0 °F 26.6 °F 80% 28.94 in 10.0 mi SSW 11.5 mph - N/A   Clear
8:16 PM 32.0 °F 23.0 °F 24.8 °F 75% 28.94 in 10.0 mi SSW 11.5 mph - N/A   Clear
8:36 PM 32.0 °F 24.2 °F 24.8 °F 75% 28.95 in 10.0 mi SSW 9.2 mph - N/A   Clear
8:56 PM 28.4 °F 22.2 °F 23.0 °F 80% 28.95 in 10.0 mi South 5.8 mph - N/A   Clear
9:16 PM 28.4 °F 21.2 °F 21.2 °F 74% 28.95 in 10.0 mi South 6.9 mph - N/A   Clear
9:36 PM 28.4 °F 20.4 °F 21.2 °F 74% 28.96 in 10.0 mi SSE 8.1 mph - N/A   Clear
9:56 PM 28.4 °F 20.4 °F 19.4 °F 69% 28.97 in 10.0 mi SSE 8.1 mph - N/A   Clear
10:16 PM 28.4 °F 19.7 °F 21.2 °F 74% 28.97 in 10.0 mi SSE 9.2 mph - N/A   Clear
10:36 PM 28.4 °F 18.5 °F 19.4 °F 69% 28.97 in 10.0 mi SSE 11.5 mph - N/A   Clear
10:56 PM 28.4 °F 19.1 °F 21.2 °F 74% 28.97 in 10.0 mi SSE 10.4 mph - N/A   Mostly Cloudy
11:16 PM 30.2 °F 21.3 °F 21.2 °F 69% 28.97 in 10.0 mi SSE 10.4 mph - N/A   Mostly Cloudy
11:36 PM 30.2 °F 20.8 °F 19.4 °F 64% 28.97 in 10.0 mi SSE 11.5 mph - N/A   Partly Cloudy
11:56 PM 30.2 °F 20.8 °F 19.4 °F 64% 28.98 in 10.0 mi SSE 11.5 mph - N/A   Clear